Content
SEND FEEDBACK

Daily
Averages
Monthly
Summary
United States of America

ROSE CITY, TEXAS


Home > North America > United States > Texas
Elevation: 20 feet     Latitude: 30 05N     Longitude: 094 06W

WEATHER
 
SELECT A DAY
Number of Records: 71,457;   Date Range: 3/9/11 - 9/21/14
 
SHARE

PRINT THIS DATA

[ ← Previous Day ]
WEATHER ALMANAC - JANUARY 31, 2013
[ Next Day → ]
[ °C ]   °F
Weather ElementAverageHighLow
Temperature44.3 °F64.4 °F (1:15 pm)32 °F (5:15 am)
Dewpoint24.7 °F35.6 °F (8:15 am)3.2 °F (11:35 am)
Humidity62.5 %100 % (5:15 am)10 % (11:35 am)
Barometer30.27 in30.33 in (10:35 am)30.22 in (4:55 am)
Wind Speed2.8 mph11.5 mph (11:55 am)
Wind Gust18.4 mph (1:55 pm)
Weather ElementAverage
Visibility10 mi
Wind DirectionENE (80.8 °)

Weather ElementTotal
Precipitation---
Heating Degree Days16.8 (Base 65)
Averaged from 38 records on January 31, 2013
WEATHER CONDITIONS BREAKOUT
WIND DIRECTION BREAKOUT
WEATHER BY HOUR - JANUARY 31, 2013
[ °C ]   °F
Local TimeTemperatureDewpointHumidityBarometerVisibilityWind DirectionWind SpeedGust SpeedPrecipitationEventsConditions
12:35 AM37.4 °F32.0 °F81 %30.24 in10.0 miCalmClear
12:55 AM37.4 °F32.0 °F81 %30.24 in10.0 miCalmClear
1:15 AM37.4 °F30.2 °F75 %30.25 in10.0 miCalmClear
1:35 AM35.6 °F32.0 °F87 %30.24 in10.0 miCalmClear
1:55 AM35.6 °F30.2 °F81 %30.23 in10.0 miCalmClear
2:15 AM35.6 °F32.0 °F87 %30.23 in10.0 miCalmClear
2:55 AM33.8 °F32.0 °F93 %30.23 in10.0 miCalmClear
3:15 AM35.6 °F32.0 °F87 %30.23 in10.0 miCalmClear
3:35 AM33.8 °F32.0 °F93 %30.24 in10.0 miCalmClear
3:55 AM33.8 °F32.0 °F93 %30.23 in10.0 miCalmClear
4:15 AM35.6 °F32.0 °F87 %30.23 in10.0 miCalmClear
4:35 AM35.6 °F32.0 °F87 %30.23 in10.0 miCalmClear
4:55 AM33.8 °F32.0 °F93 %30.22 in10.0 miCalmClear
5:15 AM32.0 °F32.0 °F100 %30.23 in10.0 miCalmClear
5:35 AM33.8 °F32.0 °F93 %30.23 in10.0 miCalmClear
5:55 AM33.8 °F32.0 °F93 %30.24 in10.0 miCalmClear
6:15 AM33.8 °F32.0 °F93 %30.24 in10.0 miSSE (160°)4.6 mphClear
6:35 AM33.8 °F32.0 °F93 %30.25 in10.0 miCalmClear
6:55 AM32.0 °F30.2 °F93 %30.27 in10.0 miCalmClear
7:15 AM32.0 °F32.0 °F100 %30.26 in10.0 miCalmClear
7:35 AM33.8 °F32.0 °F93 %30.27 in10.0 miCalmClear
7:55 AM35.6 °F32.0 °F87 %30.29 in10.0 miCalmClear
8:15 AM39.2 °F35.6 °F87 %30.30 in10.0 miCalmClear
8:35 AM44.6 °F32.0 °F61 %30.31 in10.0 miCalmClear
8:55 AM46.4 °F32.0 °F57 %30.31 in10.0 miCalmClear
9:15 AM50.0 °F30.2 °F47 %30.32 in10.0 miSSW (200°)3.5 mphClear
10:35 AM59.0 °F12.2 °F16 %30.33 in10.0 miSSW (200°)9.2 mphClear
10:55 AM59.0 °F14.0 °F17 %30.33 in10.0 miWSW (240°)8.1 mphClear
11:15 AM60.8 °F10.4 °F14 %30.32 in10.0 miSW (220°)6.9 mphClear
11:35 AM60.8 °F3.2 °F10 %30.32 in10.0 miSSW (210°)5.8 mphClear
11:55 AM62.6 °F6.8 °F11 %30.31 in10.0 miSW (230°)11.5 mphClear
12:15 PM62.6 °F5.0 °F10 %30.31 in10.0 miWSW (250°)9.2 mphClear
12:35 PM62.6 °F5.0 °F10 %30.30 in10.0 miSW (220°)6.9 mphClear
12:55 PM62.6 °F6.8 °F11 %30.28 in10.0 miSW (230°)5.8 mphClear
1:15 PM64.4 °F8.6 °F11 %30.28 in10.0 miSW (230°)6.9 mphClear
1:35 PM64.4 °F10.4 °F12 %30.27 in10.0 miSSW (210°)10.4 mphClear
1:55 PM62.6 °F14.0 °F15 %30.26 in10.0 miSW (230°)8.1 mph18.4 mphClear
2:15 PM60.8 °F12.2 °F15 %30.26 in10.0 miWSW (240°)10.4 mphClear
Hourly data recorded from KBMT, located miles away from Rose City, Texas







STORIES FROM OUR PARTNERS